DateTimeUTC,F1_A11,F1_S11,BsB_S11,BsG_S11,BsR_S11,BbsB_S11,BbsG_S11,BbsR_S11,BaB_A11,BaG_A11,BaR_A11,Tu_S11,T_S11,Uu_S11,U_S11,P_S11,T1_A11
2021-04-24T17:00:00Z,00000200,21000000,,,,,,,-000.11,0000.18,0000.08,18.8,26.0,01.2,00.8,0678.1,31.1
2021-04-24T17:01:00Z,00000200,21000000,,,,,,,0000.22,-000.30,0000.13,18.8,26.0,01.2,00.8,0678.2,31.1
2021-04-24T17:02:00Z,00000200,21000000,,,,,,,0000.21,0000.32,-000.09,18.8,26.0,01.2,00.8,0678.2,31.1
2021-04-24T17:03:00Z,00000200,61000000,,,,,,,0000.38,0000.27,0000.35,18.8,26.0,01.2,00.8,0678.2,31.2
2021-04-24T17:04:00Z,00000200,41000000,0001.92,0001.52,0000.41,0000.56,0000.19,-000.04,0000.67,0000.57,0000.34,18.9,25.8,01.2,00.8,0679.2,31.2
2021-04-24T17:05:00Z,00000200,01000000,0002.08,0001.75,0001.09,-000.01,0000.27,0000.48,0000.75,0000.95,0000.46,19.0,25.8,01.2,00.8,0679.2,31.1
2021-04-24T17:06:00Z,00000200,01000000,0001.52,0001.40,0000.69,0000.41,0000.46,0000.18,0000.79,0000.65,0000.75,19.0,25.7,01.3,00.9,0679.3,31.1
2021-04-24T17:07:00Z,00000200,01000000,0002.39,0001.63,0001.03,0000.44,0000.16,0000.27,0000.73,0000.81,0000.69,19.0,25.7,01.3,00.9,0679.3,31.1
2021-04-24T17:08:00Z,00000200,01000000,0001.48,0001.42,0001.02,0000.44,0000.61,0000.40,0000.98,0001.01,0000.37,19.0,25.7,01.3,00.8,0679.3,31.1
2021-04-24T17:09:00Z,00000200,01000000,0002.25,0001.65,0001.33,0000.46,0000.28,0000.46,0000.37,-000.02,0000.39,19.0,25.8,01.3,00.9,0679.3,31.1
2021-04-24T17:10:00Z,00000200,01000000,0002.09,0001.39,0001.09,0000.56,0000.41,0000.15,0000.42,0000.65,0000.36,19.0,25.7,01.4,00.9,0679.3,31.2
2021-04-24T17:11:00Z,00000200,01000000,0002.10,0001.52,0000.68,0000.69,0000.24,0000.12,0001.37,0001.10,0000.79,19.0,25.7,01.3,00.9,0679.3,31.2
2021-04-24T17:12:00Z,00000200,01000000,0001.42,0001.36,0001.06,0000.23,0000.32,0000.23,0000.60,0000.54,0000.44,19.0,25.7,01.4,00.9,0679.4,31.2
2021-04-24T17:13:00Z,00000200,01000000,0002.15,0001.54,0001.04,-000.02,0000.63,0000.30,0000.48,0000.91,0000.38,19.0,25.7,01.3,00.8,0679.3,31.1
2021-04-24T17:14:00Z,00000200,01000000,0002.21,0001.53,0001.11,0000.81,0000.37,0000.14,0000.75,0000.37,0000.64,19.0,25.7,01.3,00.9,0679.3,31.1
2021-04-24T17:15:00Z,00000200,01000000,0002.31,0001.33,0000.94,0001.29,0000.28,0000.28,0000.90,0000.62,0000.68,19.0,25.7,01.3,00.9,0679.4,31.1
2021-04-24T17:16:00Z,00000200,01000000,0001.73,0001.55,0000.62,0000.47,0000.37,0000.10,0000.71,0000.57,0000.57,19.0,25.7,01.4,00.9,0679.4,31.2
2021-04-24T17:17:00Z,00000200,01000000,0002.36,0001.57,0001.22,0001.02,0000.33,0000.22,0000.76,0000.95,0000.41,18.9,25.7,01.3,00.9,0679.4,31.1
2021-04-24T17:18:00Z,00000200,01000000,0001.85,0001.71,0001.10,0000.88,0000.48,0000.43,0000.73,0000.54,0000.57,19.0,25.7,01.3,00.9,0679.4,31.1
2021-04-24T17:19:00Z,00000200,01000000,0001.91,0001.63,0000.91,0000.81,0000.59,0000.32,0000.86,0000.84,0000.46,19.0,25.7,01.3,00.9,0679.4,31.1
2021-04-24T17:20:00Z,00000200,01000000,0002.15,0001.57,0001.03,0000.83,0000.26,0000.33,0000.67,0000.26,0000.62,18.9,25.7,01.3,00.9,0679.4,31.2
2021-04-24T17:21:00Z,00000200,01000000,0002.02,0001.37,0001.05,0000.19,0000.16,0000.19,0000.95,0000.52,0000.37,19.0,25.7,01.3,00.9,0679.4,31.1
2021-04-24T17:22:00Z,00000200,01000000,0001.83,0001.40,0000.88,0000.35,0000.30,0000.31,0000.32,0000.78,0000.56,18.9,25.7,01.2,00.8,0679.4,31.1
2021-04-24T17:23:00Z,00000200,01000000,0002.49,0001.92,0000.95,0000.02,0000.05,0000.45,0000.69,0000.68,0000.20,18.9,25.7,01.2,00.8,0679.4,31.2
2021-04-24T17:24:00Z,00000200,01000000,0002.63,0001.60,0000.84,0000.75,0000.18,0000.24,0000.84,0000.85,0000.58,18.9,25.7,01.2,00.8,0679.4,31.1
2021-04-24T17:25:00Z,00000200,01000000,0001.71,0001.77,0000.97,0000.73,0000.35,0000.60,0000.47,0000.27,0000.33,18.9,25.7,01.2,00.8,0679.4,31.1
2021-04-24T17:26:00Z,00000200,01000000,0002.47,0001.68,0000.80,0000.35,0000.24,0000.23,0000.70,0001.13,0000.75,19.0,25.7,01.2,00.8,0679.4,31.1
2021-04-24T17:27:00Z,00000200,01000000,0002.94,0001.33,0000.82,0000.51,0000.21,0000.19,0000.71,0000.30,0000.32,19.0,25.7,01.1,00.8,0679.4,31.1
2021-04-24T17:28:00Z,00000200,01000000,0001.85,0001.43,0000.92,0000.22,0000.25,0000.43,0000.82,0000.65,0000.46,18.9,25.7,01.1,00.7,0679.4,31.1
2021-04-24T17:29:00Z,00000200,01000000,0001.61,0001.80,0000.95,0000.14,0000.39,0000.22,0000.87,0000.67,0000.79,18.9,25.7,01.2,00.8,0679.4,31.1
2021-04-24T17:30:00Z,00000200,01000000,0002.23,0001.63,0001.03,0000.44,0000.20,0000.56,0000.47,0000.67,0000.43,18.9,25.6,01.2,00.8,0679.4,31.2
2021-04-24T17:31:00Z,00000200,01000000,0001.42,0001.71,0000.85,0000.89,0000.31,0000.17,0000.97,0000.62,0000.24,18.9,25.6,01.1,00.7,0679.4,31.2
2021-04-24T17:32:00Z,00000200,01000000,0001.91,0001.35,0000.82,0000.73,0000.32,0000.23,0000.82,0000.91,0000.73,18.9,25.6,01.2,00.8,0679.4,31.1
2021-04-24T17:33:00Z,00000200,01000000,0002.32,0001.44,0001.11,0000.41,0000.17,0000.31,0000.90,0000.42,0000.59,18.9,25.6,01.2,00.8,0679.4,31.2
2021-04-24T17:34:00Z,00000200,01000000,0002.37,0001.55,0001.15,-000.01,0000.37,0000.34,0000.33,0000.90,0000.34,18.9,25.6,01.1,00.8,0679.4,31.1
2021-04-24T17:35:00Z,00000200,01000000,0003.00,0001.65,0001.12,0000.52,0000.52,0000.33,0001.05,0000.03,0000.45,18.9,25.6,01.2,00.8,0679.4,31.1
2021-04-24T17:36:00Z,00000200,01000000,0002.58,0001.59,0001.19,0000.58,0000.23,0000.41,0000.76,0000.92,0000.63,18.9,25.6,01.1,00.7,0679.4,31.1
2021-04-24T17:37:00Z,00000200,01000000,0002.15,0001.70,0001.44,0000.26,0000.62,0000.34,0000.17,0000.77,0000.48,18.9,25.6,01.1,00.7,0679.4,31.1
2021-04-24T17:38:00Z,00000200,01000000,0002.71,0001.53,0000.78,0001.10,0000.42,0000.38,0001.04,0000.69,0000.41,18.9,25.6,01.0,00.7,0679.4,31.1
2021-04-24T17:39:00Z,00000200,01000000,0002.11,0001.76,0000.77,0000.80,0000.40,0000.33,0000.52,0000.51,0000.56,18.9,25.6,01.0,00.7,0679.4,31.1
2021-04-24T17:40:00Z,00000200,01000000,0002.22,0001.41,0001.14,0000.69,0000.44,0000.20,0000.96,0000.72,0000.63,18.9,25.6,00.9,00.6,0679.4,31.1
2021-04-24T17:41:00Z,00000200,01000000,0002.61,0001.67,0000.85,0000.90,0000.27,0000.38,0000.33,0000.51,0000.42,18.9,25.6,00.9,00.6,0679.4,31.1
2021-04-24T17:42:00Z,00000200,01000000,0002.14,0001.75,0000.80,0000.83,0000.48,0000.28,0000.70,0000.76,0000.27,18.9,25.6,00.9,00.6,0679.4,31.1
2021-04-24T17:43:00Z,00000200,01000000,0002.15,0001.28,0001.36,0000.31,0000.44,0000.49,0000.99,0000.59,0000.57,18.9,25.6,00.9,00.6,0679.4,31.1
2021-04-24T17:44:00Z,00000200,01000000,0002.39,0001.84,0001.08,0000.71,0000.46,0000.02,0000.88,0000.79,0000.69,18.9,25.6,00.9,00.6,0679.4,31.1
2021-04-24T17:45:00Z,00000200,01000000,0001.70,0001.49,0000.73,0000.21,0000.16,0000.37,0000.70,0000.40,0000.56,18.9,25.6,00.9,00.6,0679.4,31.1
2021-04-24T17:46:00Z,00000200,01000000,0002.38,0001.68,0001.03,0000.34,0000.53,0000.46,0000.53,0000.78,0000.36,18.9,25.6,00.8,00.6,0679.4,31.1
2021-04-24T17:47:00Z,00000200,01000000,0001.87,0001.71,0000.84,0000.50,0000.36,0000.08,0000.66,0000.53,0000.30,18.9,25.6,00.8,00.5,0679.3,31.1
2021-04-24T17:48:00Z,00000200,01000000,0002.46,0001.75,0001.26,0000.52,0000.30,0000.27,0000.55,0000.80,0001.06,18.9,25.6,00.7,00.5,0679.3,31.1
2021-04-24T17:49:00Z,00000200,01000000,0002.42,0001.56,0001.09,0000.64,0000.22,0000.17,0000.92,0000.60,0000.32,18.9,25.6,00.9,00.6,0679.4,31.1
2021-04-24T17:50:00Z,00000200,01000000,0002.19,0001.57,0001.06,0000.88,0000.26,0000.46,0000.94,0000.87,0000.38,18.9,25.6,00.8,00.6,0679.4,31.2
2021-04-24T17:51:00Z,00000200,01000000,0002.35,0001.87,0001.01,0000.15,0000.16,0000.19,0000.49,0000.25,0000.30,18.8,25.6,00.7,00.5,0679.4,31.2
2021-04-24T17:52:00Z,00000200,01000000,0002.14,0001.61,0001.27,0000.37,-000.00,0000.20,0000.76,0000.77,0000.36,18.8,25.6,00.6,00.4,0679.4,31.1
2021-04-24T17:53:00Z,00000200,01000000,0002.09,0001.69,0001.19,0000.70,0000.18,0000.19,0000.73,0000.64,0000.69,18.9,25.6,00.7,00.4,0679.4,31.1
2021-04-24T17:54:00Z,00000200,01000000,0002.54,0001.57,0001.01,0000.27,0000.32,0000.20,0000.83,0000.74,0000.43,18.9,25.6,00.6,00.4,0679.4,31.2
2021-04-24T17:55:00Z,00000200,01000000,0001.79,0001.69,0000.94,0000.51,0000.34,0000.09,0000.74,0001.03,0000.79,18.9,25.6,00.7,00.5,0679.4,31.1
2021-04-24T17:56:00Z,00000200,01000000,0002.96,0001.63,0001.22,0000.28,0000.47,0000.18,0000.70,0000.02,0000.38,18.8,25.6,00.7,00.4,0679.4,31.1
2021-04-24T17:57:00Z,00000200,41000000,,,,,,,0000.65,0001.11,0000.26,18.9,25.7,00.9,00.6,0679.3,31.1
2021-04-24T17:58:00Z,00000200,61000000,,,,,,,-000.15,-000.33,0000.24,18.6,25.7,00.7,00.4,0678.4,31.1
2021-04-24T17:59:00Z,00000200,21000000,,,,,,,-000.32,0000.06,0000.07,18.6,25.8,00.6,00.4,0678.4,31.1
